Location: Cheyres
(46.8153°N, 6.7877°E)
Time: 09:18:35
(UTC+00:00)

Cosmos 990 Rocket - Pass Details

Date: 26 September 2021
Orbit: 746 x 769 km, 74.0° (Epoch: 21 October)

Event Time Altitude Azimuth Distance (km) Brightness Sun altitude
Rises 18:28:23 0° 157° (SSE) 3,182 6.9 -12.1°
Enters shadow 18:30:50 - 143° (SE) 2,407 6.1 -12.5°
Exits shadow 18:35:03 19° 93° (E) 1,750 5.2 -13.2°
Drops below altitude 10° 18:38:23 10° 53° (NE) 2,289 6.1 -13.8°
Sets 18:41:23 0° 36° (NE) 3,224 7.0 -14.3°
